Regional Weather Roundup
Issued by NWS

Home | Current Version | Previous Version | Graphics & Text | Print | Product List | Glossary On
Versions: 1 2 3 4 5 6 7 8 9 10 11 12 13 14 15 16 17 18 19 20 21 22 23 24 25 26 27 28 29 30 31 32 33 34 35 36 37 38 39 40 41 42 43 44 45 46 47 48 49 50
000
ASUS45 KABQ 221410
RWRNM
WEATHER ROUNDUP FOR NEW MEXICO
NATIONAL WEATHER SERVICE ALBUQUERQUE NM
800 AM MDT WED OCT 22 2014

NOTE: "FAIR" MEANS FEW OR NO CLOUDS BELOW 12,000 FEET AGL WITH NO
       SIGNIFICANT WEATHER OR OBSTRUCTIONS TO VISION.

      THIS PRODUCT IS RELEASED AS TWO VERSIONS.  ONE VERSION NEAR
      THE TOP OF THE HOUR CONTAINING PRELIMINARY DATA FROM ALBUQUERQUE
      AND OTHER STATIONS.  A FINAL VERSION WITH ADDITIONAL DATA IS
      ISSUED ABOUT 10 MINUTES AFTER THE HOUR.

NMZ501-503-504-510>518-221500-
NORTHWEST PLATEAU/NORTHCENTRAL MOUNTAINS

CITY           SKY/WX    TMP DP  RH WIND       PRES   REMARKS
FARMINGTON     CLEAR     43  40  89 E5        30.15R
LOS ALAMOS     CLEAR     46  44  92 CALM      30.25R
SANTA FE       FOG       47  46  97 CALM      30.21R VSB<1/4
TAOS           CLOUDY    45  39  81 CALM      30.24R
ANGEL FIRE     FAIR      37  35  91 CALM      30.28R

$$
NMZ402-403-502-505>509-221500-
WESTCENTRAL MOUNTAINS/SOUTHWEST MOUNTAINS

CITY           SKY/WX    TMP DP  RH WIND       PRES   REMARKS
GALLUP         PTCLDY    39  38  96 CALM      30.21R
GRANTS         MOCLDY    37  37 100 NW3       30.24R FOG
SILVER CITY    CLEAR     48  46  93 NW5       30.18R

$$
NMZ407-409-411-412-221500-
SOUTHERN DESERTS

CITY           SKY/WX    TMP DP  RH WIND       PRES   REMARKS
LORDSBURG      FAIR      52  50  93 MISG      30.11R
DEMING         CLEAR     52  51  97 NE5       30.12R
LAS CRUCES     CLEAR     53  51  95 CALM      30.14R
HOLLOMAN AFB   PTCLDY    49  48  96 N5        30.13R
T OR C         CLEAR     51  48  89 W6        30.14R

$$
NMZ519>523-221500-
CENTRAL VALLEYS/CENTRAL HIGHLANDS

CITY           SKY/WX    TMP DP  RH WIND       PRES   REMARKS
ALBUQUERQUE    PTCLDY    53  47  79 VRB3      30.18R
DOUBLE EAGLE   PTCLDY    45  43  93 NW3       30.19R
MORIARTY ARPT  FOG       44  42  94 N3        30.22R VSB<1/4
CLINES CORNERS FOG       46  45  96 NW6       30.21R VSB 1
BELEN          FAIR      49  48  97 CALM      30.17R
SOCORRO        FAIR      51  49  95 SW5       30.15R

$$
NMZ524>526-539-540-221500-
SOUTHCENTRAL MOUNTAINS

CITY           SKY/WX    TMP DP  RH WIND       PRES   REMARKS
RUIDOSO        CLEAR     46  45  93 CALM      30.23R

$$
NMZ527>531-221500-
NORTHEAST HIGHLANDS/NORTHEAST PLAINS

CITY           SKY/WX    TMP DP  RH WIND       PRES   REMARKS
LAS VEGAS      CLEAR     43  40  89 N6        30.19R
RATON          PTCLDY    46  43  89 N6        30.15R
CLAYTON        PTCLDY    56  51  84 SW16G23   30.08R

$$
NMZ532>537-221500-
EASTCENTRAL PLAINS

CITY           SKY/WX    TMP DP  RH WIND       PRES   REMARKS
TUCUMCARI      CLOUDY    59  54  83 SW8       30.09R
CANNON AFB     CLOUDY    58  56  94 SW5       30.14R FOG
CLOVIS AIRPORT CLOUDY    57  55  94 S6        30.16R

$$
NMZ028-029-538-221500-
SOUTHEAST PLAINS

CITY           SKY/WX    TMP DP  RH WIND       PRES   REMARKS
ROSWELL        FOG       60  59  96 CALM      30.11R VSB 1/2
CARLSBAD       CLOUDY    62  59  90 CALM      30.10R FOG
HOBBS          CLOUDY    61  61 100 SE9       30.13R


$$



USA.gov is the U.S. government's official web portal to all federal, state and local government web resources and services.